Stations météo

réclame
Mon MeteoGroup
Aachen-Orsbach, Allemagne (10505): Température de l'air & dewpoint: 10.07.2018 00:00:00 - 16.07.2018 00:00:00 (CEST)Aachen-Orsbach, Allemagne (10505): Température de l'air 5cm & Température de l'air -5cm: 10.07.2018 00:00:00 - 16.07.2018 00:00:00 (CEST)Aachen-Orsbach, Allemagne (10505): Température de l'air -20cm & Température de l'air -100cm: 10.07.2018 00:00:00 - 16.07.2018 00:00:00 (CEST)Aachen-Orsbach, Allemagne (10505): Vitesse du vent & gusts: 10.07.2018 00:00:00 - 16.07.2018 00:00:00 (CEST)Aachen-Orsbach, Allemagne (10505): Direction du vent: 10.07.2018 00:00:00 - 16.07.2018 00:00:00 (CEST)Aachen-Orsbach, Allemagne (10505): reduced air pressure: 10.07.2018 00:00:00 - 16.07.2018 00:00:00 (CEST)Aachen-Orsbach, Allemagne (10505): visibility: 10.07.2018 00:00:00 - 16.07.2018 00:00:00 (CEST)Aachen-Orsbach, Allemagne (10505): Ensoleillement: 10.07.2018 00:00:00 - 16.07.2018 00:00:00 (CEST)Aachen-Orsbach, Allemagne (10505): Quantités de précipitations: 10.07.2018 00:00:00 - 16.07.2018 00:00:00 (CEST)
Date & Time tt [°C] td [°C] tt 5cm [°C] tt -5cm [°C] tt -20cm [°C] tt -100cm [°C] ff [km/h] ff [knt] fx [km/h] fx [knt] dd ppp [hPa] vv [km] sd [min] rr [mm]
16.07.2018 00:00:00 19,6 8,5 14,5 23,9 25,5 17,8 7 4 17 9 E 1015,0 74 0 0,0
15.07.2018 23:00:00 21,4 7,9 17,6 25,1 25,7 17,8 10 6 16 8 ENE 1014,7 69 0 0,0
15.07.2018 22:00:00 22,7 7,4 19,2 26,7 25,7 17,8 9 5 15 8 NE 1014,4 75 18 0,0
15.07.2018 21:00:00 24,7 7,3 23,4 28,5 25,7 17,8 10 5 24 13 NE 1013,7 68 23 0,0
15.07.2018 20:00:00 26,6 7,5 27,4 30,2 25,5 17,8 17 9 25 13 ENE 1013,4 75 32 0,0
15.07.2018 19:00:00 26,7 8,4 29,7 31,7 25,2 17,8 13 7 27 15 N 1013,4 53 59 0,0
15.07.2018 18:00:00 27,1 7,8 31,4 32,9 24,8 17,8 13 7 24 13 NNE 1013,6 75 54 0,0
15.07.2018 17:00:00 27,5 7,8 33,0 33,6 24,3 17,8 11 6 25 14 ENE 1013,9 75 60 0,0
15.07.2018 16:00:00 27,6 8,2 34,0 33,5 23,9 17,8 15 8 32 17 NNE 1014,2 47 60 0,0
15.07.2018 15:00:00 27,0 9,0 33,2 33,1 23,4 17,8 15 8 27 15 NE 1014,9 50 60 0,0
15.07.2018 14:00:00 27,1 8,7 34,1 32,1 23,0 17,8 11 6 26 14 NE 1015,5 65 60 0,0
15.07.2018 13:00:00 25,0 9,9 31,3 30,8 22,7 17,8 14 8 25 14 ENE 1016,2 57 60 0,0
15.07.2018 12:00:00 24,4 10,2 30,4 29,6 22,5 17,7 15 8 22 12 ENE 1016,6 75 60 0,0
15.07.2018 11:00:00 24,1 12,0 28,7 27,3 22,4 17,7 12 7 26 14 ENE 1016,7 54 60 0,0
15.07.2018 10:00:00 22,4 12,0 26,2 25,0 22,4 17,7 11 6 19 10 ENE 1017,1 53 60 0,0
15.07.2018 09:00:00 19,4 12,1 22,6 22,1 22,6 17,7 11 6 14 8 E 1017,3 40 60 0,0
15.07.2018 08:00:00 17,9 11,6 19,7 20,0 22,9 17,7 8 4 11 6 E 1017,4 57 60 0,0
15.07.2018 07:00:00 14,9 10,8 14,6 18,7 23,2 17,7 9 5 10 6 E 1017,5 43 45 0,0
15.07.2018 06:00:00 15,0 10,8 9,3 18,8 23,5 17,7 6 3 10 5 E 1017,7 43 0 0,0
15.07.2018 05:00:00 14,0 10,4 10,2 19,4 23,8 17,7 9 5 10 6 E 1018,0 49 0 0,0
15.07.2018 04:00:00 15,0 10,0 10,9 20,1 24,2 17,7 10 5 11 6 E 1018,0 58 0 0,0
15.07.2018 03:00:00 15,1 9,7 10,8 20,8 24,5 17,7 10 6 12 7 ENE 1018,4 60 0 0,0
15.07.2018 02:00:00 15,8 9,4 11,1 21,7 24,8 17,7 10 5 11 6 ENE 1018,4 67 0 0,0
15.07.2018 01:00:00 17,3 9,3 12,3 22,8 25,1 17,7 8 4 16 8 ENE 1018,5 70 0 0,0
15.07.2018 00:00:00 19,9 9,7 17,5 24,0 25,3 17,7 9 5 15 8 NE 1018,2 71 0 0,0
14.07.2018 23:00:00 20,5 10,2 18,2 25,1 25,5 17,7 9 5 19 10 NE 1018,1 56 0 0,0
14.07.2018 22:00:00 21,8 10,8 19,8 26,7 25,5 17,7 10 5 21 11 NNE 1017,7 66 27 0,0
14.07.2018 21:00:00 23,4 10,4 22,6 28,5 25,4 17,7 9 5 16 9 N 1017,3 65 60 0,0
14.07.2018 20:00:00 24,9 10,5 26,5 30,6 25,2 17,7 11 6 18 10 NNE 1017,2 73 60 0,0
14.07.2018 19:00:00 25,6 11,0 28,7 32,4 24,9 17,7 11 6 26 14 N 1017,3 59 60 0,0
14.07.2018 18:00:00 26,1 10,9 30,8 33,8 24,5 17,7 12 6 25 14 N 1017,5 45 60 0,0
14.07.2018 17:00:00 26,3 11,3 31,6 34,6 24,1 17,7 12 7 24 13 NW 1017,5 51 60 0,0
14.07.2018 16:00:00 25,1 10,7 31,5 34,6 23,6 17,7 12 7 22 12 NW 1018,1 45 57 0,0
14.07.2018 15:00:00 24,9 13,5 31,1 34,3 23,1 17,7 14 7 24 13 N 1018,6 32 54 0,0
14.07.2018 14:00:00 24,5 13,8 31,9 33,5 22,7 17,7 8 4 20 11 N 1019,0 41 60 0,0
14.07.2018 13:00:00 23,4 13,9 30,1 31,5 22,3 17,7 7 4 18 10 N 1019,4 35 60 0,0
14.07.2018 12:00:00 22,5 13,9 28,0 29,5 22,1 17,7 9 5 19 11 N 1019,9 28 60 0,0
14.07.2018 11:00:00 20,9 14,7 25,6 27,1 22,0 17,7 10 5 19 10 NNW 1020,3 25 60 0,0
14.07.2018 10:00:00 19,5 14,5 23,0 24,8 22,0 17,7 9 5 13 7 WNW 1020,6 23 60 0,0
14.07.2018 09:00:00 18,0 14,1 20,2 22,2 22,2 17,7 4 2 6 4 W 1020,4 8 60 0,0
14.07.2018 08:00:00 16,4 13,5 18,5 20,0 22,4 17,7 3 1 5 3 S 1020,3 5 60 0,0
14.07.2018 07:00:00 14,5 12,8 14,1 18,9 22,7 17,7 3 1 5 3 W 1020,5 20 9 0,0
14.07.2018 06:00:00 12,8 11,9 10,4 19,0 23,0 17,7 4 2 6 4 WSW 1020,5 17 0 0,0
14.07.2018 05:00:00 14,2 12,4 11,1 19,6 23,3 17,7 4 2 7 4 WNW 1020,5 24 0 0,0
14.07.2018 04:00:00 15,1 12,6 11,5 20,3 23,6 17,7 5 3 6 3 W 1020,4 33 0 0,0
14.07.2018 03:00:00 16,9 13,0 11,4 21,1 23,9 17,7 4 2 8 4 WNW 1020,2 24 0 0,0
14.07.2018 02:00:00 17,8 12,9 13,3 22,0 24,2 17,7 5 3 11 6 NNE 1020,2 43 0 0,0
14.07.2018 01:00:00 18,7 12,5 16,1 22,9 24,4 17,7 9 5 16 9 NNE 1020,3 44 0 0,0
14.07.2018 00:00:00 20,0 12,2 18,1 23,8 24,6 17,7 10 6 20 11 NNE 1019,9 65 0 0,0
13.07.2018 23:00:00 21,2 11,2 19,1 24,7 24,7 17,7 9 5 14 7 NNE 1019,5 55 0 0,0
13.07.2018 22:00:00 21,7 10,8 17,6 26,3 24,8 17,7 6 3 10 5 N 1019,3 52 21 0,0
13.07.2018 21:00:00 23,2 11,6 22,4 28,1 24,7 17,7 4 2 18 10 N 1018,8 53 60 0,0
13.07.2018 20:00:00 24,1 11,7 25,2 30,2 24,4 17,7 12 7 21 12 NNW 1018,8 73 54 0,0
13.07.2018 19:00:00 24,6 10,7 27,4 32,3 24,1 17,7 14 8 20 11 WNW 1018,8 54 53 0,0
13.07.2018 18:00:00 25,6 10,5 30,5 33,9 23,6 17,7 10 5 21 11 NNW 1019,0 49 60 0,0
13.07.2018 17:00:00 25,5 9,7 32,2 34,3 23,1 17,7 6 4 24 13 NNE 1019,2 51 60 0,0
13.07.2018 16:00:00 25,3 10,7 32,5 34,1 22,6 17,7 12 7 22 12 NW 1019,6 65 60 0,0
13.07.2018 15:00:00 24,7 10,6 31,4 33,5 22,1 17,7 12 6 22 12 WNW 1019,7 61 59 0,0
13.07.2018 14:00:00 24,2 11,4 31,6 32,7 21,6 17,7 8 4 19 10 NW 1020,2 46 60 0,0
13.07.2018 13:00:00 22,7 12,4 29,3 31,0 21,2 17,7 9 5 18 10 NW 1020,7 56 60 0,0
13.07.2018 12:00:00 21,9 13,5 28,4 28,9 20,9 17,7 8 4 17 9 NE 1020,9 33 60 0,0
13.07.2018 11:00:00 20,1 14,0 25,5 26,5 20,8 17,7 6 4 15 8 N 1020,9 23 60 0,0
13.07.2018 10:00:00 18,3 14,4 22,0 23,8 20,8 17,7 7 4 13 7 N 1021,0 19 60 0,0
13.07.2018 09:00:00 17,3 14,1 19,5 21,1 21,0 17,7 5 3 9 5 NNE 1021,0 11 60 0,0
13.07.2018 08:00:00 15,2 13,4 16,7 19,1 21,2 17,7 5 3 9 5 NNW 1021,1 12 60 0,0
13.07.2018 07:00:00 14,6 12,9 14,2 17,7 21,4 17,7 3 1 7 4 N 1021,1 11 40 0,0
13.07.2018 06:00:00 14,1 13,5 10,7 17,7 21,7 17,7 6 3 7 4 NNE 1021,0 12 0 0,0
13.07.2018 05:00:00 14,0 13,3 9,6 18,3 21,9 17,7 3 2 7 4 NNW 1021,1 16 0 0,0
13.07.2018 04:00:00 14,9 13,6 10,5 19,0 22,2 17,8 4 2 9 5 NNW 1020,9 24 0 0,0
13.07.2018 03:00:00 15,3 12,7 13,5 19,8 22,4 17,8 10 6 18 10 N 1020,7 33 0 0,0
13.07.2018 02:00:00 16,7 13,2 15,2 20,5 22,6 17,8 11 6 17 9 N 1020,3 33 0 0,0
13.07.2018 01:00:00 18,0 12,7 16,3 21,3 22,8 17,8 11 6 20 11 N 1020,2 48 0 0,0
13.07.2018 00:00:00 19,0 12,5 17,2 22,2 22,9 17,8 11 6 21 11 N 1019,9 51 0 0,0
12.07.2018 23:00:00 19,9 12,5 18,7 22,8 23,0 17,8 10 5 19 10 N 1019,5 56 0 0,0
12.07.2018 22:00:00 21,1 12,7 18,3 24,1 23,0 17,8 8 4 11 6 NNE 1018,7 53 2 0,0
12.07.2018 21:00:00 22,4 12,7 22,0 25,4 22,9 17,8 6 3 10 6 NE 1018,2 43 3 0,0
12.07.2018 20:00:00 22,7 12,4 22,5 26,9 22,8 17,8 7 4 19 11 NNE 1017,9 51 2 0,0
12.07.2018 19:00:00 23,8 13,0 26,0 28,7 22,5 17,8 14 8 23 12 NNE 1017,6 75 30 0,0
12.07.2018 18:00:00 23,3 12,9 25,7 28,7 22,1 17,8 11 6 22 12 ENE 1017,9 43 11 0,0
12.07.2018 17:00:00 24,2 11,6 30,1 30,1 21,7 17,8 7 4 16 9 NW 1017,8 43 34 0,0
12.07.2018 16:00:00 23,1 12,7 26,3 31,2 21,2 17,8 11 6 21 11 N 1018,3 45 48 0,0
12.07.2018 15:00:00 22,8 13,7 27,7 30,0 20,8 17,8 8 5 21 11 NNW 1018,5 41 43 0,0
12.07.2018 14:00:00 21,5 13,7 27,7 28,5 20,5 17,8 7 4 22 12 NW 1018,9 35 41 0,0
12.07.2018 13:00:00 20,3 14,3 26,0 26,3 20,3 17,8 10 5 19 11 NW 1019,2 26 35 0,0
12.07.2018 12:00:00 18,1 13,6 21,7 23,8 20,3 17,8 9 5 19 11 NNW 1019,4 27 16 0,0
12.07.2018 11:00:00 17,0 13,5 19,7 21,3 20,3 17,8 10 5 19 11 NNW 1019,5 27 0 0,0
12.07.2018 10:00:00 16,2 13,6 17,7 20,4 20,3 17,8 13 7 21 11 NW 1019,4 20 1 0,0
12.07.2018 09:00:00 16,1 13,3 18,0 19,6 20,4 17,8 9 5 17 9 NW 1018,9 22 0 0,0
12.07.2018 08:00:00 15,6 13,7 16,5 19,1 20,5 17,8 10 5 18 10 WNW 1018,3 15 0 0,0
12.07.2018 07:00:00 15,4 14,7 16,0 18,9 20,6 17,8 13 7 21 11 W 1018,2 10 0 0,0
12.07.2018 06:00:00 15,1 14,4 15,3 18,8 20,7 17,8 8 5 11 6 W 1018,0 14 0 0,0
12.07.2018 05:00:00 15,2 14,2 15,2 19,0 20,8 17,8 9 5 13 7 W 1018,0 17 0 0,0
12.07.2018 04:00:00 15,7 14,1 15,7 19,2 21,0 17,8 8 5 12 7 WNW 1018,0 20 0 0,0
12.07.2018 03:00:00 16,0 14,2 15,9 19,5 21,1 17,8 9 5 11 6 WNW 1017,9 22 0 0,0
12.07.2018 02:00:00 16,2 14,2 15,6 19,8 21,2 17,8 5 3 22 12 WNW 1017,9 24 0 0,0
12.07.2018 01:00:00 17,2 13,9 17,1 20,1 21,3 17,8 13 7 24 13 NNW 1017,9 31 0 0,0
12.07.2018 00:00:00 17,7 13,3 17,5 20,4 21,4 17,8 13 7 28 15 NW 1017,8 36 0 0,0
11.07.2018 23:00:00 18,1 13,1 17,8 20,8 21,5 17,8 13 7 24 13 NW 1017,6 43 0 0,0
11.07.2018 22:00:00 18,0 13,5 17,7 21,3 21,5 17,8 10 5 14 8 WNW 1017,3 39 0 0,0
11.07.2018 21:00:00 17,4 13,9 16,6 22,1 21,5 17,8 2 1 25 14 W 1017,3 36 0 0,0
11.07.2018 20:00:00 19,2 12,9 19,6 23,0 21,5 17,8 20 11 31 17 NW 1017,0 42 0 0,0
11.07.2018 19:00:00 20,2 11,9 21,3 23,6 21,3 17,8 19 11 28 15 NNW 1016,6 50 0 0,0
11.07.2018 18:00:00 20,5 10,5 21,6 25,0 21,1 17,8 17 9 26 14 WNW 1016,5 49 0 0,0
11.07.2018 17:00:00 21,0 9,4 23,7 26,7 20,8 17,8 21 11 33 18 WNW 1016,7 43 29 0,0
11.07.2018 16:00:00 21,1 9,3 25,2 26,1 20,5 17,8 18 10 27 15 NW 1017,0 67 5 0,0
11.07.2018 15:00:00 20,1 8,5 22,9 26,4 20,2 17,8 16 8 25 14 NW 1017,2 60 21 0,0
11.07.2018 14:00:00 20,0 8,1 24,4 27,2 19,9 17,8 12 6 27 15 NNW 1017,5 37 51 0,0
11.07.2018 13:00:00 18,3 9,3 20,6 24,0 19,6 17,8 14 8 24 13 NW 1018,0 35 21 0,0
11.07.2018 12:00:00 17,7 10,5 20,3 24,0 19,4 17,8 10 5 19 10 NNW 1018,2 47 27 0,0
11.07.2018 11:00:00 16,7 10,9 19,2 23,1 19,3 17,8 10 5 19 10 NNW 1018,3 35 55 0,0
11.07.2018 10:00:00 14,8 11,0 18,1 19,9 19,3 17,8 5 3 14 7 N 1018,7 29 48 0,0
11.07.2018 09:00:00 12,6 10,8 14,7 17,2 19,4 17,8 6 4 10 5 W 1019,0 23 4 0,0
11.07.2018 08:00:00 11,4 10,2 12,9 15,8 19,6 17,8 6 4 10 6 W 1018,5 20 24 0,0
11.07.2018 07:00:00 10,5 9,3 11,1 14,9 19,9 17,8 7 4 10 6 WNW 1018,2 22 49 0,0
11.07.2018 06:00:00 9,6 8,8 8,0 14,9 20,1 17,8 7 4 9 5 W 1018,2 20 0 0,0
11.07.2018 05:00:00 10,6 9,2 8,8 15,3 20,3 17,8 8 5 11 6 W 1018,1 26 0 0,0
11.07.2018 04:00:00 10,7 9,1 8,9 15,7 20,5 17,8 9 5 15 8 W 1017,9 30 0 0,0
11.07.2018 03:00:00 11,6 9,2 9,7 16,3 20,7 17,8 10 6 18 10 NNW 1017,7 36 0 0,0
11.07.2018 02:00:00 11,8 9,4 10,0 17,0 20,9 17,8 7 4 13 7 WNW 1017,8 34 0 0,0
11.07.2018 01:00:00 13,5 11,2 12,7 18,0 21,0 17,8 10 6 19 10 WNW 1017,6 25 0 0,0
11.07.2018 00:00:00 13,9 13,9 13,7 18,2 21,2 17,8 14 8 18 10 W 1017,5 4,6 0 0,0
10.07.2018 23:00:00 14,3 13,8 13,4 18,9 21,3 17,7 13 7 29 15 W 1017,4 10 0 0,0
10.07.2018 22:00:00 15,2 14,1 15,1 19,2 21,4 17,7 21 12 30 16 W 1016,6 14 0 0,0
10.07.2018 21:00:00 15,0 14,4 14,7 19,5 21,6 17,7 22 12 34 18 W 1016,6 12 0 0,0
10.07.2018 20:00:00 14,7 14,2 14,7 19,8 21,7 17,7 25 14 32 17 W 1016,5 10 0 0,0
10.07.2018 19:00:00 14,5 14,2 14,7 20,1 21,8 17,7 21 11 37 20 W 1016,8 10 0 0,2
10.07.2018 18:00:00 14,4 13,6 14,4 20,6 21,8 17,7 27 15 40 21 W 1017,1 8 0 0,1
10.07.2018 17:00:00 15,1 12,3 16,0 21,7 21,8 17,7 23 13 39 21 W 1017,4 26 2 0,0
10.07.2018 16:00:00 15,0 11,3 16,6 21,3 21,9 17,7 26 14 40 21 W 1018,2 44 0 0,0
10.07.2018 15:00:00 15,0 10,3 16,4 21,8 21,9 17,7 24 13 35 19 W 1018,5 41 0 0,0
10.07.2018 14:00:00 15,3 9,5 17,1 22,1 21,9 17,7 22 12 32 17 WNW 1018,7 54 0 0,0
10.07.2018 13:00:00 15,3 9,0 17,2 22,4 21,9 17,7 19 11 34 18 WNW 1018,7 75 3 0,0
10.07.2018 12:00:00 16,0 8,4 20,9 21,8 21,9 17,7 22 12 32 17 W 1018,7 55 15 0,0
10.07.2018 11:00:00 14,7 8,7 16,6 21,1 22,0 17,7 22 12 33 18 WNW 1019,0 56 6 0,0
10.07.2018 10:00:00 14,4 8,8 16,1 20,6 22,2 17,7 18 10 26 14 WNW 1019,5 61 0 0,0
10.07.2018 09:00:00 13,8 9,1 15,5 20,1 22,4 17,7 15 8 24 13 NW 1019,6 58 0 0,0
10.07.2018 08:00:00 13,2 9,4 14,1 19,8 22,6 17,7 14 8 21 11 NW 1020,0 51 0 0,0
10.07.2018 07:00:00 13,1 9,0 13,3 19,9 22,8 17,7 15 8 24 13 NW 1020,2 60 0 0,0
10.07.2018 06:00:00 13,2 9,2 13,2 20,3 23,0 17,7 16 8 27 15 NW 1020,3 55 0 0,0
10.07.2018 05:00:00 13,4 9,4 13,3 20,7 23,3 17,7 15 8 32 17 NW 1020,3 54 0 0,0
10.07.2018 04:00:00 13,8 9,2 13,8 21,3 23,5 17,7 18 10 32 17 NW 1020,5 54 0 0,0
10.07.2018 03:00:00 14,5 9,4 14,6 22,1 23,6 17,7 24 13 37 20 NNW 1020,7 55 0 0,0
10.07.2018 02:00:00 15,7 13,3 15,9 22,5 23,8 17,7 15 8 25 13 NNW 1020,6 27 0 0,0
10.07.2018 01:00:00 16,5 14,1 16,6 23,0 24,0 17,6 14 7 27 15 N 1020,8 33 0 0,0
10.07.2018 00:00:00 17,3 14,5 17,2 23,5 24,2 17,6 15 8 26 14 NNW 1020,8 37 0 0,0

tt = Température de l'air
td = dewpoint
tt 5cm = Température de l'air 5cm
tt -5cm = Température de l'air -5cm
tt -20cm = Température de l'air -20cm
tt -100cm = Température de l'air -100cm
ff = Vitesse du vent
fx = gusts
dd = Direction du vent
ppp = reduced air pressure
vv = visibility
sd = Ensoleillement
rr = Quantités de précipitations

stations d'obs. à proximité